Probability
71 58 87 81 84 77 77 74 71 71 71 65 55 39 32 23 19 19 13 10 10 6 6 10 3 0 0 0 0 0 0 0 0 0 0 0 0 0 0 0 0 0 0
61 65 84 81 81 74 74 71 68 71 71 68 55 42 29 23 16 16 16 13 6 10 3 3 0 3 0 0 0 0 0 0 0 0 0 0 0 0 0 0 0 0 0
61 58 84 81 81 74 71 68 65 68 65 65 61 45 35 29 26 19 16 6 10 6 3 0 3 0 3 0 0 0 0 0 0 0 0 0 0 0 0 0 0 0 0
58 48 58 77 68 65 68 65 61 61 61 71 52 52 39 29 26 23 16 13 10 3 3 3 0 0 0 0 0 0 0 0 0 0 0 0 0 0 0 0 0 0 0
52 42 58 77 68 68 61 65 65 65 65 68 55 55 48 32 32 19 19 13 13 10 6 6 0 0 0 0 0 0 0 0 0 0 0 0 0 0 0 0 0 0 0
42 39 58 74 71 58 65 61 58 61 61 65 55 58 45 39 29 23 32 19 6 6 3 0 0 0 0 0 0 0 0 0 0 0 0 0 0 0 0 0 0 0 0
45 35 52 74 65 58 55 61 65 58 58 48 55 52 42 35 29 26 13 6 3 0 0 0 0 0 0 0 0 0 0 0 0 0 0 0 0 0 0 0 0 0 0
35 35 42 68 65 61 55 58 52 61 61 55 55 52 39 32 23 16 3 0 3 3 0 0 0 0 0 0 0 0 0 0 0 0 0 0 0 0 0 0 0 0 0
35 26 29 35 39 42 48 52 45 58 61 61 55 45 32 16 13 6 3 0 3 3 0 0 0 0 0 0 0 0 0 0 0 0 0 0 0 0 0 0 0 0 0
39 23 23 19 16 16 16 29 32 29 32 29 29 10 3 3 3 3 0 0 0 0 0 0 0 0 0 0 0 0 0 0 0 0 0 0 0 0 0 0 0 0 0
23 19 19 13 10 10 6 10 13 13 13 10 0 0 0 0 0 0 0 0 0 0 0 0 0 0 0 0 0 0 0 0 0 0 0 0 0 0 0 0 0 0 0
19 13 13 13 6 3 3 6 3 3 3 0 0 0 0 0 0 0 0 0 0 0 0 0 0 0 0 0 0 0 0 0 0 0 0 0 0 0 0 0 0 0 0
10 6 6 3 3 0 0 0 3 3 0 0 0 0 0 0 0 0 0 0 0 0 0 0 0 0 0 0 0 0 0 0 0 0 0 0 0 0 0 0 0 0 0
3 6 3 0 0 0 0 0 0 0 0 0 0 0 0 0 0 0 0 0 0 0 0 0 0 0 0 0 0 0 0 0 0 0 0 0 0 0 0 0 0 0 0
0 0 0 0 0 0 0 0 0 0 0 0 0 0 0 0 0 0 0 0 0 0 0 0 0 0 0 0 0 0 0 0 0 0 0 0 0 0 0 0 0 0 0
0 0 0 0 0 0 0 0 0 0 0 0 0 0 0 0 0 0 0 0 0 0 0 0 0 0 0 0 0 0 0 0 0 0 0 0 0 0 0 0 0 0 0
0 0 0 0 0 0 0 0 0 0 0 0 0 0 0 0 0 0 0 0 0 0 0 0 0 0 0 0 0 0 0 0 0 0 0 0 0 0 0 0 0 0 0
0 0 0 0 0 0 0 0 0 0 0 0 0 0 0 0 0 0 0 0 0 0 0 0 0 0 0 0 0 0 0 0 0 0 0 0 0 0 0 0 0 0 0
3 0 0 0 0 0 0 0 0 0 0 0 0 0 0 0 0 0 0 0 0 0 0 0 0 0 0 0 0 0 0 0 0 0 0 0 0 0 0 0 0 0 0
3 3 0 0 0 0 0 0 0 0 0 0 0 0 0 0 0 0 0 0 0 0 0 0 0 0 0 0 0 0 0 0 0 0 0 0 0 0 0 0 0 0 0
3 3 3 3 0 0 0 0 0 0 0 0 0 0 0 0 0 0 0 0 0 0 0 0 0 0 0 0 0 0 0 0 0 0 0 0 0 0 0 0 0 0 0
0 0 3 3 3 0 0 0 0 0 0 0 0 0 0 0 0 0 0 0 3 0 0 0 0 0 0 0 0 0 0 0 0 0 0 0 0 0 0 0 0 0 0
0 0 0 3 3 3 0 0 0 0 0 0 0 0 0 0 0 0 0 0 0 0 0 0 0 0 0 0 0 0 0 0 0 0 0 0 0 0 0 0 0 0 0
0 0 0 0 3 0 0 0 0 0 0 0 0 0 0 0 0 0 0 0 0 0 0 0 0 0 0 0 0 0 0 0 0 0 0 0 0 0 0 0 0 0 0
0 0 0 0 0 0 0 0 0 0 0 0 0 0 0 0 0 0 0 0 0 0 0 0 0 0 0 0 0 0 0 0 0 0 0 0 0 0 0 0 0 0 0
0 0 0 0 0 0 0 0 0 0 0 0 0 0 0 0 0 0 0 0 0 0 0 0 0 0 0 0 0 0 0 0 0 0 0 0 0 0 0 0 0 0 0
Height
5853 5855 5858 5860 5863 5866 5868 5870 5872 5873 5874 5875 5876 5877 5877 5878 5879 5880 5880 5881 5881 5881 5881 5881 5881 5881 5881 5882 5882 5882 5882 5883 5883 5883 5883 5883 5883 5883 5882 5882 5881 5880 5879
5848 5851 5854 5857 5859 5862 5865 5867 5869 5871 5872 5873 5874 5875 5876 5877 5878 5879 5879 5880 5880 5880 5880 5881 5881 5881 5881 5881 5882 5882 5882 5883 5883 5883 5883 5883 5883 5883 5882 5882 5881 5880 5879
5843 5846 5849 5853 5856 5858 5861 5864 5866 5868 5870 5871 5872 5873 5874 5875 5876 5877 5878 5879 5879 5880 5880 5880 5880 5880 5881 5881 5881 5882 5882 5882 5883 5883 5883 5883 5883 5882 5882 5881 5880 5879 5878
5837 5841 5845 5848 5851 5854 5857 5860 5863 5865 5867 5868 5870 5871 5872 5874 5875 5876 5877 5878 5878 5879 5879 5879 5880 5880 5880 5880 5881 5881 5881 5882 5882 5882 5882 5882 5882 5882 5881 5880 5880 5879 5878
5830 5835 5839 5843 5847 5850 5853 5856 5859 5862 5864 5866 5867 5869 5870 5871 5873 5874 5875 5876 5877 5878 5878 5878 5879 5879 5879 5880 5880 5880 5881 5881 5881 5881 5882 5882 5881 5881 5880 5880 5879 5878 5877
5824 5829 5834 5838 5842 5845 5849 5852 5855 5858 5860 5862 5864 5866 5867 5869 5870 5872 5873 5874 5875 5876 5877 5877 5878 5878 5878 5879 5879 5879 5880 5880 5880 5880 5880 5880 5880 5880 5879 5879 5878 5877 5876
5817 5823 5828 5832 5837 5840 5844 5848 5851 5854 5856 5859 5861 5863 5865 5866 5868 5869 5871 5872 5873 5874 5875 5876 5876 5877 5877 5877 5878 5878 5879 5879 5879 5879 5879 5879 5879 5878 5878 5877 5877 5876 5874
5810 5816 5821 5826 5831 5835 5839 5843 5846 5849 5852 5855 5857 5860 5861 5863 5865 5867 5868 5870 5871 5872 5873 5874 5874 5875 5876 5876 5876 5877 5877 5878 5878 5878 5878 5878 5877 5877 5876 5876 5875 5874 5873
5803 5809 5814 5820 5825 5829 5833 5837 5841 5845 5848 5851 5853 5856 5858 5860 5862 5864 5865 5867 5868 5869 5871 5872 5872 5873 5874 5874 5875 5875 5876 5876 5876 5876 5876 5876 5876 5875 5874 5874 5873 5872 5871
5795 5801 5807 5813 5818 5823 5827 5832 5836 5840 5843 5846 5849 5852 5854 5856 5858 5860 5862 5864 5865 5867 5868 5869 5870 5871 5871 5872 5873 5873 5873 5874 5874 5874 5874 5874 5873 5873 5872 5872 5871 5870 5868
5788 5794 5800 5806 5811 5816 5821 5826 5830 5834 5838 5841 5844 5847 5850 5852 5855 5857 5859 5860 5862 5864 5865 5866 5867 5868 5869 5870 5870 5871 5871 5872 5872 5872 5872 5871 5871 5870 5870 5869 5868 5867 5866
5780 5786 5792 5798 5804 5810 5815 5820 5824 5828 5832 5836 5839 5843 5845 5848 5851 5853 5855 5857 5859 5860 5862 5863 5864 5865 5866 5867 5867 5868 5868 5869 5869 5869 5869 5869 5868 5868 5867 5866 5865 5864 5863
5772 5779 5785 5791 5797 5802 5808 5813 5818 5822 5826 5830 5834 5837 5841 5843 5846 5849 5851 5853 5855 5857 5858 5859 5861 5862 5863 5863 5864 5865 5865 5866 5866 5866 5866 5865 5865 5864 5864 5863 5862 5861 5859
5762 5769 5776 5783 5789 5794 5800 5805 5810 5815 5820 5824 5828 5832 5835 5839 5842 5844 5847 5849 5851 5853 5854 5855 5857 5858 5859 5860 5861 5861 5862 5862 5862 5862 5862 5862 5862 5861 5860 5859 5858 5857 5856
5753 5759 5766 5774 5780 5785 5790 5796 5802 5808 5813 5818 5822 5826 5830 5833 5837 5839 5842 5844 5846 5848 5850 5851 5853 5854 5855 5856 5857 5857 5858 5858 5859 5859 5858 5858 5858 5857 5856 5856 5854 5853 5851
5743 5749 5756 5763 5770 5777 5782 5788 5794 5800 5806 5811 5815 5820 5824 5827 5831 5834 5837 5839 5841 5843 5845 5847 5848 5850 5851 5852 5852 5853 5854 5854 5854 5854 5854 5854 5854 5853 5852 5851 5850 5848 5847
5734 5740 5746 5753 5760 5767 5773 5779 5785 5791 5797 5803 5808 5813 5817 5821 5824 5828 5831 5834 5836 5838 5840 5842 5843 5845 5846 5847 5848 5849 5849 5849 5850 5850 5850 5849 5849 5848 5847 5846 5845 5843 5842
5723 5731 5737 5743 5752 5759 5764 5770 5777 5782 5789 5795 5801 5806 5810 5814 5818 5821 5825 5828 5830 5832 5834 5836 5838 5840 5841 5842 5843 5844 5844 5844 5845 5845 5845 5844 5844 5843 5842 5841 5840 5838 5837
5713 5721 5728 5735 5742 5749 5756 5762 5769 5775 5781 5787 5792 5798 5802 5807 5811 5815 5818 5821 5824 5826 5828 5830 5832 5834 5835 5836 5837 5838 5839 5839 5839 5839 5839 5839 5838 5838 5837 5836 5834 5833 5831
5705 5712 5719 5726 5733 5740 5746 5753 5759 5766 5772 5778 5784 5790 5795 5799 5803 5808 5811 5814 5817 5820 5822 5824 5826 5828 5829 5830 5831 5832 5833 5833 5833 5833 5833 5833 5832 5832 5831 5830 5829 5827 5825
5696 5703 5711 5718 5724 5731 5738 5744 5750 5757 5764 5770 5776 5781 5786 5791 5796 5800 5804 5808 5811 5813 5815 5817 5819 5821 5822 5823 5825 5825 5826 5827 5827 5827 5827 5826 5826 5825 5825 5824 5823 5821 5819
5689 5696 5703 5710 5717 5724 5732 5737 5744 5750 5756 5763 5768 5773 5778 5783 5787 5792 5796 5800 5803 5806 5808 5810 5812 5813 5815 5816 5817 5818 5819 5821 5820 5820 5820 5820 5819 5819 5818 5817 5816 5814 5813
5684 5691 5697 5704 5710 5717 5724 5730 5736 5741 5747 5753 5759 5765 5770 5775 5779 5784 5788 5791 5795 5798 5800 5802 5804 5806 5808 5809 5810 5811 5812 5813 5814 5814 5813 5813 5812 5812 5811 5810 5809 5807 5806
5678 5684 5691 5697 5704 5710 5716 5722 5728 5734 5740 5747 5752 5757 5762 5767 5771 5775 5779 5783 5786 5789 5792 5794 5796 5798 5799 5801 5802 5803 5804 5805 5806 5806 5806 5805 5805 5804 5803 5803 5801 5800 5798
5672 5678 5684 5690 5696 5703 5709 5715 5721 5727 5733 5738 5744 5749 5753 5758 5763 5767 5770 5774 5777 5780 5782 5785 5787 5789 5791 5793 5794 5795 5796 5796 5797 5797 5798 5798 5797 5796 5796 5795 5793 5792 5791
5667 5672 5678 5684 5689 5695 5701 5707 5712 5718 5724 5730 5735 5740 5744 5749 5753 5757 5761 5765 5768 5771 5773 5776 5778 5780 5782 5784 5785 5786 5787 5788 5788 5788 5789 5789 5789 5788 5787 5786 5785 5784 5783
Wind_Speed
32 31 29 28 26 24 22 20 19 17 16 15 14 12 11 11 10 9 8 6 5 4 3 2 2 2 2 2 2 2 2 2 1 2 2 3 5 6 7 8 9 10 11
35 34 32 30 28 26 24 22 20 19 17 16 15 14 13 12 11 10 9 8 6 5 4 4 3 3 3 3 2 2 2 1 1 1 2 3 4 5 7 8 9 10 12
37 36 34 32 30 28 27 24 22 20 19 17 16 15 14 14 13 12 11 9 8 7 6 5 4 4 3 3 3 3 2 2 1 1 2 3 4 5 7 8 9 11 12
39 38 36 34 32 30 28 27 24 22 21 19 18 17 16 15 14 13 12 11 9 8 7 6 5 5 4 4 4 3 3 3 3 3 3 4 4 6 7 8 9 11 12
40 39 38 36 34 32 30 29 26 24 23 21 19 18 17 16 15 14 13 12 11 9 8 7 6 6 5 5 5 5 4 4 4 4 4 5 5 7 8 9 10 11 12
42 41 40 38 36 34 32 30 29 26 25 23 21 19 18 17 16 16 15 14 12 11 10 9 8 7 7 6 6 6 6 5 5 5 5 6 7 8 8 9 11 12 13
44 42 42 40 39 37 35 32 31 29 27 25 23 21 20 19 18 17 16 15 13 12 11 10 9 9 8 8 7 7 7 7 6 6 7 7 8 8 9 10 12 13 14
43 43 43 42 41 39 37 35 32 31 29 28 25 23 22 21 20 18 17 16 15 14 13 11 10 10 9 9 9 8 8 8 8 8 8 8 9 9 10 11 13 14 15
46 45 44 44 43 41 39 37 35 33 31 30 27 25 24 23 21 20 19 18 17 16 14 13 12 11 11 10 10 10 9 9 9 9 9 9 10 11 12 13 14 15 16
48 47 46 45 44 43 41 39 37 35 33 31 30 27 26 24 23 22 21 20 18 17 16 15 14 13 13 12 12 11 10 10 10 10 10 11 12 12 13 14 15 16 17
49 49 47 47 47 45 43 41 39 37 35 33 32 30 28 26 25 23 22 21 20 19 18 17 16 15 15 14 13 13 12 12 12 12 12 12 13 14 14 15 16 17 18
50 49 48 47 48 47 46 44 41 39 37 35 34 32 30 28 26 25 24 23 21 20 19 18 17 17 16 16 15 15 14 14 14 14 14 14 15 15 16 17 18 19 20
52 50 50 50 49 49 48 46 44 42 39 37 35 34 32 30 28 27 26 24 23 22 21 20 19 19 18 17 17 16 16 16 16 16 16 16 16 17 17 18 19 20 22
53 51 51 52 51 51 50 48 46 44 42 40 37 36 34 32 30 28 27 26 25 24 23 22 21 20 20 19 18 18 18 18 17 18 18 18 18 18 19 19 21 22 23
55 54 52 53 52 51 50 50 48 46 45 42 40 38 36 34 32 30 29 28 27 25 25 23 23 22 21 20 20 20 19 19 19 19 19 20 20 20 20 21 22 23 24
57 55 53 53 53 52 52 51 50 48 47 45 42 40 38 36 34 32 31 30 29 28 27 25 24 24 23 22 22 21 21 21 21 21 21 21 21 22 23 23 24 25 25
58 56 54 55 54 54 52 52 51 49 48 47 44 42 40 38 36 35 33 32 31 30 28 27 26 25 24 23 23 23 22 22 22 23 23 23 24 24 24 25 25 26 26
57 56 55 54 55 53 53 52 52 51 50 48 45 43 41 39 38 37 35 34 32 31 30 28 27 27 26 25 25 24 23 24 24 24 25 26 26 26 26 27 27 27 27
55 57 55 54 54 53 53 52 50 50 51 48 46 44 42 40 39 37 36 35 34 33 31 30 29 28 27 27 26 26 25 25 26 27 28 28 28 28 28 28 28 28 29
53 55 56 55 54 53 52 52 50 50 50 49 47 45 44 42 40 39 37 36 36 34 33 32 31 30 30 29 29 28 28 28 28 29 30 30 30 30 30 30 30 30 31
53 54 55 54 52 51 51 50 49 49 49 50 49 48 45 44 42 41 40 39 37 36 35 35 34 33 32 32 32 31 31 31 30 30 31 32 32 31 31 31 31 31 31
50 52 51 52 52 51 49 49 48 47 48 49 49 48 47 46 44 42 41 40 39 38 38 37 36 35 34 34 33 33 32 32 32 32 32 32 32 32 31 31 32 32 31
47 50 50 49 52 52 50 49 50 49 49 48 48 49 48 47 45 44 43 43 42 41 40 38 37 36 37 35 34 34 33 34 33 33 34 33 33 33 32 32 33 33 33
45 46 45 48 50 51 50 50 49 50 48 47 47 47 48 47 45 46 46 45 44 43 42 40 39 39 38 37 37 36 36 36 35 34 35 34 34 34 34 34 34 34 35
42 44 42 45 49 50 48 48 47 49 48 48 48 48 48 47 47 47 47 47 46 45 44 43 42 41 40 39 38 38 37 36 36 36 36 35 35 35 35 34 34 35 36
38 41 43 42 45 48 49 47 48 48 46 46 47 48 48 48 48 48 48 48 48 47 45 44 43 43 41 40 39 39 37 37 37 37 37 36 35 35 34 34 35 35 36
Wind_Direction
226 229 229 228 228 229 230 231 233 234 234 235 235 235 236 236 235 234 233 232 235 241 241 228 215 197 181 171 165 159 152 147 116 70 44 32 24 19 16 15 14 13 12
226 227 228 228 228 229 229 230 231 233 233 234 234 234 234 235 235 235 235 233 236 240 242 237 226 216 205 192 189 191 189 190 183 16 10 11 10 7 7 7 5 5 5
227 226 227 228 228 228 229 229 230 232 233 234 234 234 233 234 235 236 236 236 238 240 242 239 232 224 220 215 214 215 216 225 243 297 327 341 351 356 356 357 357 358 357
228 226 227 227 227 228 228 229 229 231 232 233 233 234 234 235 236 235 236 237 239 240 242 242 237 229 226 228 231 233 235 242 259 282 301 316 328 338 343 346 348 349 349
227 225 226 227 227 227 228 228 229 230 231 232 233 234 234 235 237 236 236 238 239 240 242 242 240 234 231 235 239 241 245 250 261 276 288 301 313 324 332 337 341 342 343
226 224 226 226 227 227 228 228 229 230 231 232 233 234 233 234 237 237 237 238 239 240 241 242 242 238 237 240 243 246 250 256 262 272 281 292 304 314 323 329 333 335 337
226 223 224 226 226 227 228 228 229 230 231 232 232 234 234 234 236 237 237 238 238 240 241 243 244 243 243 245 246 249 252 256 261 268 278 288 298 307 314 321 325 328 331
225 223 223 225 226 227 228 228 229 229 230 232 232 233 234 235 236 237 237 238 239 240 242 244 246 246 246 248 250 252 255 258 263 268 276 285 294 302 308 314 318 322 325
225 224 223 224 225 226 227 228 229 229 230 231 232 233 235 236 236 236 237 238 239 241 243 245 247 248 248 249 252 255 257 260 264 269 276 284 291 298 304 309 313 317 320
223 223 223 224 225 226 227 227 228 229 230 231 231 233 234 236 236 236 237 239 240 242 244 245 247 249 249 250 252 254 257 261 264 271 278 285 290 295 301 305 310 314 317
222 222 222 223 224 225 227 227 228 229 230 231 232 233 234 235 236 236 237 239 241 242 245 246 247 249 250 251 252 254 258 261 265 272 278 283 288 293 298 302 306 310 313
222 222 222 223 224 225 226 227 228 228 229 231 232 233 234 234 235 236 238 239 241 243 245 247 248 250 251 252 253 255 258 261 266 271 276 281 286 291 295 299 303 307 311
221 222 224 223 224 225 225 226 228 228 229 231 232 233 233 233 235 237 239 240 242 243 245 247 249 251 252 253 255 257 259 262 267 271 276 281 285 289 293 297 302 305 309
220 221 222 222 224 224 224 225 227 228 229 230 232 232 233 233 235 237 239 241 242 244 245 247 249 251 253 255 257 259 261 264 267 272 276 280 284 287 291 295 299 303 306
219 220 222 221 222 222 221 223 225 227 228 229 230 231 232 233 235 237 239 240 243 244 246 247 249 251 254 256 258 260 262 265 268 271 275 278 281 285 289 293 297 301 304
218 220 220 221 221 222 222 222 224 226 227 228 229 230 231 233 235 237 239 240 242 244 246 248 249 251 253 255 258 260 263 266 268 270 273 276 280 284 288 292 296 299 302
217 219 219 218 219 219 221 221 222 225 227 227 228 229 231 233 235 237 239 241 243 245 246 248 250 251 253 255 258 262 264 266 268 270 273 276 279 283 287 291 295 298 301
218 219 220 217 217 218 219 221 222 222 224 226 227 229 232 234 235 237 239 241 244 245 247 249 251 252 254 256 259 262 264 266 269 271 274 276 279 283 287 290 293 296 299
218 218 218 216 215 215 217 219 221 221 223 224 226 228 231 233 235 236 238 241 243 245 247 248 250 252 255 257 259 262 264 266 269 272 274 276 279 282 287 290 292 295 298
220 219 216 216 214 214 215 217 218 221 222 225 226 228 231 233 235 237 239 241 243 245 247 249 251 254 256 258 260 262 264 266 270 272 275 277 279 281 285 288 291 294 297
220 219 217 215 214 216 217 218 218 219 222 224 227 229 231 233 235 238 240 242 244 246 247 249 251 254 256 259 259 262 264 266 269 273 276 278 280 282 284 286 290 293 296
218 217 218 218 216 216 218 219 219 220 222 224 226 227 230 232 235 237 239 242 245 247 250 251 252 254 256 259 260 262 264 266 270 273 275 277 280 282 283 285 288 291 293
218 217 219 218 216 217 219 221 221 220 222 224 226 228 229 232 234 236 239 242 244 247 250 252 254 256 258 259 261 263 265 266 269 272 274 276 278 280 282 285 288 290 292
219 216 220 218 217 218 220 223 223 223 223 224 226 229 230 232 234 237 239 242 244 247 250 251 253 256 258 261 263 264 265 267 269 272 274 276 277 277 281 284 286 289 292
222 221 222 221 220 221 223 225 225 225 225 225 226 229 232 234 236 238 241 244 246 248 250 250 253 255 258 260 262 264 267 268 270 273 275 275 276 277 280 282 285 288 290
230 229 228 226 225 225 226 226 226 227 226 227 229 230 233 235 238 240 242 244 247 249 250 250 254 256 257 260 262 265 267 268 270 273 275 275 276 276 279 281 284 287 290